Погода в Тбилиси

Погода в Тбилиси : погода сейчас, прогноз погоды и архив. Всё, что Вы хотите узнать о погоде в Тбилиси!

Поиск расширенной информации на нашем сайте:

Полезная информация: Компьютерное кресло менеджер стандарт.

Другие новости

Новости СМИ2

Главная страница сайта

Новости сайта

03.07.2017

Напоминаем, что на нашем специализированном сайте Метеоцентр.Азия вы можете получить высокодетализированные автоматические прогнозы погоды по пунктам России, СНГ и мира в авиационном формате (включающие направление и скорость ветра, видимость, явления погоды, количество и форму облачности, нижнюю и верхнюю границу облачности).

Рекомендуем: ауди БМВ мерседес кузовной ремонт

Погода в Тбилиси - сегодня

Время (UTC), дата Ветер
(°,м/с) 
Видим.   Явления Облачность Т
(°С)
Тd
(°С)
f(%) Тe
(°С)
Pmin
(гПа)
dP
(гПа)
Po
(мм)
O2
(г/м3)
Тmin Tmax R s Состояние
почвы
00 19.09.17 тихо ()   н/о    ясно 
+17.9 +9.8 59 +19  1017.1  -0.4  726  273           
03 19.09.17 тихо ()   20000 м    ясно 
+16.7 +9.7 63 +18  1017.3  0.1  726  274           
06 19.09.17 тихо ()   20000 м    ясно 
+24.4 +13.6 51 +32  1016.1  0.1  726  266           
09 19.09.17 140 (ЮВ) 20000 м    5/3 600 м средняя, верхняя 
[Cu hum|Ac lent|Ci]
+30.2 +10.7 30 +33  1013.7  -1.3  725  261           
12 19.09.17 160 (Ю) 20000 м    4/3 600 м средняя 
[Cu hum|As trans]
+31.4 +9.5 26 +33  1011.7  -1.8  724  260           
18 19.09.17 000 (С) н/о    ясно 
+22.6 +10.6 47 +25  1015.1  1.4  725  268    +31.6       
21 19.09.17 тихо ()   н/о    5/5 600 м 
[Cu hum]
+19.2 +10.7 58 +22  1016.7  726  271           
00 20.09.17 тихо ()   н/о    ясно 
+18.1 +10 59 +20  1017.3  0.2  726  272           
03 20.09.17 тихо ()   20000 м    4/3 600 м средняя, верхняя 
[Cu hum|Ac lent|Ci]
+16.4 +9.9 65 +18  1017.4  726  274           
06 20.09.17 110 (В) 20000 м    8/5 600 м кучево-дожд., средняя, верхняя 
[Cb calv|As op|Ci]
+23.9 +13.4 52 +31  1016  -0.1  726  266           
09 20.09.17 140 (ЮВ) 20000 м    5/5 600 м средняя 
[Cu hum|As op]
+29.8 +11.3 32 +33  1013.7  -1.4  725  261           
12 20.09.17 140 (ЮВ) 20000 м    3/0 средняя 
[As op]
+31.6 +11.9 30 +36  1011.1  -2.2  723  259           
15 20.09.17 140 (ЮВ) 20000 м    4/3 600 м средняя 
[Cu hum|As op]
+27 +13.2 43 +34  1011.7  723  263    +32       
18 20.09.17 020 (С) 16  <0100 м    1/1 <0100 м 
+12.2   1014.6  1.8  724      +32       
21 20.09.17 тихо ()   н/о    ясно 
+18.9 +12.3 65 +24  1015.4  0.5  725  271           
00 21.09.17 тихо ()   н/о    ясно 
+18.7 +12.4 67 +24  1016.5  0.8  725  271           
03 21.09.17 тихо ()   20000 м    ясно 
+17.5 +13 75 +24  1015.6  725  272           
06 21.09.17 тихо ()   20000 м    ясно 
+24.7 +15.1 55 +34  1014  -0.2  725  265           
09 21.09.17 140 (ЮВ) 20000 м    6/6 600 м средняя 
[As op]
+28.3 +15.7 46 +39  1011.2  -2.2  723  261           
12 21.09.17 140 (ЮВ) 20000 м    6/6 600 м 
[Sc]
+29.7 +16.3 44 +42  1008.8  -2  721  259           
15 21.09.17 160 (Ю) 20000 м    10/10 600 м 
[Sc]
+28.2 +15.5 46 +39  1009.1  721  260    +30       
18 21.09.17 тихо ()   н/о    10/10 600 м 
[Ns]
+24.5 +16.2 60 +36  1011.4  1.7  723  264    +30       
21 21.09.17 тихо ()   н/о    10/10 600 м 
[Ns]
+23.2 +16 64 +35  1011.5  723  265           
00 22.09.17 тихо ()   н/о    4/4 600 м 
[Cu hum]
+19.4 +12.4 64 +25  1012.8  0.4  723  270           
03 22.09.17 тихо ()   20000 м    3/3 600 м 
[Cu hum]
+17.5 +11.4 67 +21  1013.9  0.7  723  272           
Время (UTC), дата Ветер
(°,м/с) 
Видим.   Явления Облачность Т
(°С)
Тd
(°С)
f(%) Тe
(°С)
Pmin
(гПа)
dP
(гПа)
Po
(мм)
O2
(г/м3)
Тmin Tmax R s Состояние
почвы

Для получения пояснительной информации подведите курсор к названию столбца.

ПОГОДА в Тбилиси - архив

Всё, что Вы хотите узнать о погоде в Тбилиси - удобно и подробно!

Выберите нужную дату (начиная с 1 января 2015* года) и нажмите кнопку "Найти".
Будут отображены архивные сводки погоды по пункту Тбилиси, начиная с указанной даты.


Отображать данные в формате CSV (для использования в таблицах Excel)


Внимание! Наш архив погоды предназначен исключительно для личного некоммерческого использования в познавательных целях. Если Вам необходимы официальные справки о состоянии погоды (для производственных, юридических, коммерческих и т.п. целей), обращайтесь в органы Росгидромета.

*Примечание: данная дата относится к архиву по метеостанциям СССР (Россия, СНГ, Балтия).
Архив по метеостанциям Зарубежной Европы и Азии (кроме Китая) хранится 10 дней, по другим регионам земного шара (Китай, Африка, Америка, Австралия, Океания) - 1 день.

Тбилиси - район местоположения метеостанции


Название, широта, долгота, высота метеостанции:
Тбилиси 41.7°ш. 44.8°д. 403 м над ур. моря [Грузия]

Дополнительная информация

В oтличие oт бoльшинства пoгoдных сайтoв мы публикуем пoдрoбную метеoинфoрмацию в детальнoм прoфессиoнальнoм фoрмате.

Характеристики температуры и влажнoсти вoздуха измеряются на высoте 2 м в тени вдали oт зданий и деревьев.
Скoрoсть ветра измеряется на высoте 10 м (на урoвне рoста челoвека скoрoсть ветра ниже в 1.5-2 раза). Если метеoстанция нахoдится в гoрoде или в лесу, тo скoрoсть ветра занижена на 2-4 м/с пo сравнению с oткрытым местoм. Скoрoсть ветра над акватoриями крупных рек и oзёр, а также на вершинах хoлмoв на 2-5 м/с выше, чем в oбычных услoвиях.
Атмoсфернoе давление в разных тoчках местнoсти мoжет значительнo oтличаться oт давления на метеoстанции, в зависимoсти oт услoвий рельефа (при пoдъёме на 10 м давление пoнижается примернo на 1 мм рт.ст.).